Regional Weather Roundup
Issued by NWS

Home | Current Version | Previous Version | Text Only | Print | Product List | Glossary On
Versions: 1 2 3 4 5 6 7 8 9 10 11 12 13 14 15 16 17 18 19 20 21 22 23 24 25 26 27 28 29 30 31 32 33 34 35 36 37 38 39 40 41 42 43 44 45 46 47 48 49 50
000
ASUS43 KMPX 030710
RWRMN
WEATHER ROUNDUP FOR MINNESOTA
NATIONAL WEATHER SERVICE TWIN CITIES/CHANHASSEN MN
200 AM CDT THU SEP 03 2015


NOTE: "FAIR" INDICATES FEW OR NO CLOUDS BELOW 12,000 FEET WITH NO
SIGNIFICANT WEATHER AND/OR OBSTRUCTIONS TO VISIBILITY. N/A MEANS
CURRENT SKY AND/OR WEATHER CONDITIONS ARE NOT AVAILABLE.

MNZ060>063-068>070-030800-
   Twin Cities Metro

CITY           SKY/WX    TMP DP  RH WIND       PRES   REMARKS
TWIN CITIES    MOCLDY    68  66  93 E6        29.90F
ST PAUL        CLEAR     68  66  93 E3        29.91S
CRYSTAL        CLEAR     70  66  87 CALM      29.89F
BLAINE         CLEAR     68  66  94 E3        29.91S
LAKEVILLE      FOG       66  66 100 E3        29.91S VSB 1/2
EDEN PRAIRIE   CLEAR     70  67  90 E6        29.89F
SOUTH ST PAUL  CLEAR     69  66  91 CALM      29.91S
LAKE ELMO      FAIR      66  64  94 CALM      29.92F
$$
MNZ001>005-007-008-013>017-022>024-027-028-030800-
   Northwest Minnesota

CITY           SKY/WX    TMP DP  RH WIND       PRES   REMARKS
BEMIDJI        CLEAR     64  63  96 SE7       29.91F
HALLOCK        CLEAR     70  66  88 SE10      29.80S
ROSEAU         CLEAR     70  64  83 S12       29.85S
WARROAD        CLEAR     68  64  88 SE8       29.87F
THIEF RVR FALL CLEAR     66  64  94 SE13      29.84F
CROOKSTON      PTCLDY    70  66  88 SE12      29.82F
FOSSTON        CLEAR     66  63  88 SE10      29.87F
DETROIT LAKES  CLOUDY    70  66  88 SE15      29.89S
MOORHEAD       CLEAR     72  68  88 SE9       29.82F
PARK RAPIDS    PTCLDY    68  65  90 SE7       29.91S
MAHNOMEN       FAIR      68  65  92 SE10G18   29.86S
$$
MNZ006-009>011-018-025>026-030800-
   North Central Minnesota

CITY           SKY/WX    TMP DP  RH WIND       PRES   REMARKS
BAUDETTE       CLEAR     65  63  93 SE7       29.90S
FLAG ISLAND    CLEAR     70  66  88 S16       29.87S
INTL FALLS     CLEAR     61  60  97 SE3       29.94R FOG
WASKISH        CLEAR     63  63 100 CALM      29.91S
BIG FORK       PTCLDY    64  63  94 CALM      29.95S
LONGVILLE      CLOUDY    64  63  94 SE3       29.93F
GRAND RAPIDS     N/A     63  59  88 SE7       29.96S VSB 1
CRANE LAKE     CLEAR     54  52  94 CALM      29.98S
ORR            CLEAR     63  59  88 CALM      29.95S
COOK           CLEAR     61  61 100 CALM      29.98S
WALKER         FAIR      65  64  96 SE5       29.92S
$$
MNZ012-019>021-037-030800-
   Northeast Minnesota

CITY           SKY/WX    TMP DP  RH WIND       PRES   REMARKS
DULUTH         CLOUDY    63  62  97 E3        29.97F FOG
ELY              N/A     54  54 100 CALM      29.99S FOG
HIBBING        CLEAR     60  58  92 SE6       29.97F
EVELETH        FOG       59  59 100 CALM      29.99S VSB 1/2
DULUTH HARBOR  FOG       59  57  94 E5        29.97S VSB 3/4
TWO HARBORS    HAZE      64  61  88 NE3       29.96S VSB 1/2
SILVER BAY     FOG       63  61  94 CALM      29.96F VSB 3/4
GRAND MARAIS     N/A     55  53  93 CALM      29.98S
G MARAIS ARPRT CLEAR     54  50  87 N3        30.03S FOG
$$
MNZ029>031-032-039>041-046>048-054>057-064-030800-
   West Central Minnesota

CITY           SKY/WX    TMP DP  RH WIND       PRES   REMARKS
FERGUS FALLS   CLOUDY    72  72 100 SE13G18   29.84S FOG
WHEATON        MOCLDY    68  66  94 E13       29.85R FOG
MORRIS         CLEAR     70  70 100 E9        29.85F FOG
ALEXANDRIA     CLOUDY    69  67  93 E12       29.91S
ELBOW LAKE     CLOUDY    70  69  98 SE12      29.86S FOG
WADENA         CLOUDY    70  66  88 SE10      29.90S
GLENWOOD       CLOUDY    68  66  94 E8        29.90S FOG
APPLETON       PTCLDY    72  68  88 E9        29.84S FOG
BENSON         MOCLDY    70  66  88 SE6       29.86S FOG
ORTONVILLE     CLOUDY    72  70  94 SE12      29.83S
MADISON          N/A     72  70  94 E7        29.84S FOG
WILLMAR        CLOUDY    72  70  94 E8        29.89S FOG
$$
MNZ033>034-036-042>043-049>051-058-059-030800-
   Central Minnesota

CITY           SKY/WX    TMP DP  RH WIND       PRES   REMARKS
ST CLOUD       CLOUDY    68  66  93 E8        29.91S
SAUK CENTRE    PTSUNNY   66  65  96 E5        29.91S
PAYNESVILLE    CLOUDY    67  67  97 NE8       29.90F
AITKIN         CLOUDY    66  61  82 E6        29.93S HAZE
PINE RIVER     PTCLDY    64  64 100 SE6       29.96S
BRAINERD       MOCLDY    66  65  96 SE7       29.93S
STAPLES        CLOUDY    68  66  94 SE5       29.91F
LONG PRAIRIE   CLOUDY    66  64  94 E9        29.91F
LITTLE FALLS   CLOUDY    68  63  83 E3        29.91F
LITCHFIELD     CLOUDY    70  70 100 E6        29.90S FOG
BUFFALO        CLOUDY    68  65  89 NE6       29.91F
MAPLE LAKE     PTCLDY    69  67  96 E6        29.91F
$$
MNZ037-044-045-052-053-030800-
   East Central Minnesota

CITY           SKY/WX    TMP DP  RH WIND       PRES   REMARKS
PRINCETON      PTCLDY    68  66  94 E5        29.92S
MORA           PTCLDY    64  64 100 E3        29.95S
CAMBRIDGE      PTCLDY    70  61  73 CALM      29.91S
RUSH CITY      PTCLDY    66  64  94 NE3       29.93F
MOOSE LAKE     FOG       61  59  94 NE3       29.95S VSB 1/2
HINCKLEY       FAIR      63  63 100 CALM      29.94S
CLOQUET        FOG       63  61  94 E5        29.97F VSB 1/4
MCGREGOR       CLOUDY    63  63 100 E5        29.96S VSB 1/2
$$
MNZ071>073-080-081-089-090-097-098-030800-
   Southwest Minnesota

CITY           SKY/WX    TMP DP  RH WIND       PRES   REMARKS
MONTEVIDEO     CLEAR     70  70 100 SE7       29.87S FOG
GRANITE FALLS  CLEAR     70  69  98 E5        29.87S FOG
CANBY          CLEAR     70  69  95 SE3       29.85S FOG
MARSHALL       CLEAR     70  66  88 SE7       29.86F
REDWOOD FALLS  FOG       71  70  96 E7        29.86F VSB 1
OLIVIA         MOCLDY    68  64  88 E6        29.87S FOG
PIPESTONE      CLEAR     72  70  94 S7        29.87S
WINDOM         CLEAR     72  70  94 CALM      29.88F
WORTHINGTON    CLEAR     68  64  88 S6        29.87F
JACKSON        CLEAR     72  70  94 SE6       29.89S
TRACY          CLEAR     70  69  97 SE6       29.87S FOG
SLAYTON        CLEAR     68  68 100 CALM      29.89S FOG
$$
MNZ065>067-074>077-082>085-091>093-030800-
   South Central Minnesota

CITY           SKY/WX    TMP DP  RH WIND       PRES   REMARKS
MANKATO        CLEAR     70  68  94 SE6       29.89S
NEW ULM        CLEAR     72  72 100 E3        29.88S FOG
ST JAMES       CLEAR     70  70 100 SE3       29.88F
FAIRMONT       CLEAR     70  61  73 S7        29.88S
GLENCOE        CLEAR     69  69  99 E5        29.89F FOG
FARIBAULT      FOG       68  66  94 CALM      29.91S VSB<1/4
OWATONNA       CLEAR     70  66  88 CALM      29.90F
WASECA         CLEAR     68  64  88 SE5       29.91S
ALBERT LEA     CLEAR     72  70  94 S3        29.90F
$$
MNZ078>079-086>088-094>096-030800-
   Southeast Minnesota

CITY           SKY/WX    TMP DP  RH WIND       PRES   REMARKS
ROCHESTER      CLEAR     68  67  96 S6        29.93S
RED WING       PTCLDY    70  66  88 E3        29.89F
STANTON        FOG       67  65  94 CALM      29.89F VSB 1/4
DODGE CENTER   CLEAR     68  66  94 CALM      29.92S FOG
WINONA         CLEAR     73  72  94 CALM      29.90S
AUSTIN         CLEAR     70  68  94 S3        29.91F
PRESTON        CLEAR     68  66  93 S7        29.93F
$$
ABBREVIATIONS USED IN REMARKS
   TC - TEMPERATURES IN CELSIUS
  WCI - WIND CHILL INDEX
   HX - HEAT INDEX
  VSB - VISIBILITY
$$


USA.gov is the U.S. government's official web portal to all federal, state and local government web resources and services.